User: anonymous   Login
Location: Unspecified
(0.0000°N, 0.0000°E)
Time: 03:50:00
(UTC+00:00)
Language:

ERS-1 - Orbit

View from above orbital plane
View from above orbital plane
View from above satellite
View from above satellite

Ground track
Ground track

The orbit data is extracted from the following two-line orbital elements,

1 21574U 91050A   18292.47625645  .00000007  00000-0  16883-4 0  9992
2 21574  98.5166 238.5056 0032025 296.1786  63.6109 14.37667575427881
Epoch (UTC): 19 October 2018 11:25:48
Eccentricity: 0.0032025
inclination: 98.5166°
perigee height: 743 km
apogee height: 789 km
right ascension of ascending node: 238.5056°
argument of perigee: 296.1786°
revolutions per day: 14.37667575
mean anomaly at epoch: 63.6109°
orbit number at epoch: 42788

The dashed part of the orbit path shows where the satellite is in the earth's shadow,  

DLR